STARLINK-36360, 68402

Orbit data source: Space-Track

STARLINK-36360, 68402 is a payload satellite owned by SpaceX/Seattle (US) in SSO that was launched on Thu, 26 Mar 2026 UTC via an FALCON 9 launch vehicle from the Air Force Western Test Range (AFWTR). Payload-class satellites include a variety of spacecraft equipped with specific instruments for various scientific and technological missions. These include communications satellites like Starlink; space stations such as the ISS; scientific satellites like the Hubble; Earth observation satellites from companies like Planet Labs, Umbra, and HawkEye 360; GPS; miniature CubeSats for education and research; and military/defense satellites.

Not visible in the next 10 days
Identifier
68402, 2026-063Y
Orbit
SSO
Country
Flag of USUS
Related business
Manufacturer
SpaceX/Seattle
Mission
Operational spacecraft
Bus & Motor
STARLINK V2MO, Unknown motor
Mass
575 kg wet, ~530 kg dry
Launch date (UTC)
2026-03-26 (1 week ago)
Launch vehicle
FALCON 9
Launch site
Air Force Western Test Range (AFWTR)
Object type
Payload
Rocket body
Debris
Shape & HBR
Unknown shape, 17.7 m
Radar Cross Section
RCS unknown

Expand to show TLE details & history
Last TLE update: 5 hours ago

TLE from 5 hours ago
0 STARLINK-36360
1 68402U 26063Y   26095.58336806 -.02311224  14015-2 -79511-2 0  9993
2 68402  97.2796 236.6221 0001597  80.8118 176.2282 15.89768771  2786
Epoch: 2026-04-05T14:00Z
TLE epoch observation values (Epoch: 2026-04-05T14:00:03.000Z)
Latitude
-75.28203°
Longitude
-16.19536°
Altitude
331.338 km
Speed
7.707 km/s
True Right ascension
01h 50m 48s
True Declination
-75° 11' 31"
Sunlit
Object was in daylight at epoch
Visualization orbit readout
Latitude
Unknown
Longitude
Unknown
Altitude
Unknown
Speed
Unknown
Apparent Right ascension
Unknown
Apparent Declination
Unknown
Sunlit
N/A
Visualization observer readout
Local Sidereal Time
00:59:52
Azimuth
Unknown
Elevation
Unknown
Doppler factor
Unknown
Orbital elements
Apogee altitude
300.865 km
Perigee altitude
298.732 km
Semi-major axis
6,677.936 km
Eccentricity
0.00016
Inclination
97.2796°
RAAN
236.6221°
Arg. of periapsis
80.8118°
True anomaly
176.2294°
Mean anomaly
176.2282°
Eccentric anomaly
176.2288°
Mean motion
3.97722 °/min
Orbital period
90.52 mins
BSTAR
-0.0079511
Loading maneuver chart data...
Computing Atmospheric mass density...
Loading historical data...
Loading historical data...
Loading historical data...
Loading historical data...
Loading historical data...
Loading historical data...
Loading historical data...

Documentation

Showing up to 5 results
|